Regional Weather Roundup
Issued by NWS

Home | Current Version | Previous Version | Graphics & Text | Print | Product List | Glossary On
Versions: 1 2 3 4 5 6 7 8 9 10 11 12 13 14 15 16 17 18 19 20 21 22 23 24 25 26 27 28 29 30 31 32 33 34 35 36 37 38 39 40 41 42 43 44 45 46 47 48 49 50
000
ASUS45 KTFX 211710
RWRMT
MONTANA REGIONAL WEATHER ROUNDUP
NATIONAL WEATHER SERVICE GREAT FALLS MT
1000 AM MST SUN JAN 21 2018

NOTE: "FAIR" INDICATES FEW OR NO CLOUDS BELOW 12000 FEET WITH NO
SIGNIFICANT WEATHER AND/OR OBSTRUCTIONS TO VISIBILITY.

MTZ001>007-043-211800-
WEST OF THE DIVIDE

CITY           SKY/WX    TMP DP  RH WIND       PRES   REMARKS
KALISPELL      CLOUDY    28  26  92 CALM      30.12R
MISSOULA       CLOUDY    30  24  78 SE12      30.16R WCI  20
BUTTE          FAIR       4   2  91 CALM      30.10R
MULLAN PASS    CLOUDY    23  20  88 VRB3      30.00S
ANACONDA         N/A     25  10  54 S6        30.11R WCI  18
DEER LODGE       N/A     18  10  73 CALM      30.15R
EUREKA           N/A     36  23  60 MISG      30.09F
HAMILTON         N/A     28  18  64 S13       30.16R WCI  18
RONAN            N/A     30  25  80 CALM      30.14R
$$

MTZ008-052>055-211800-
SOUTHWEST MONTANA

CITY           SKY/WX    TMP DP  RH WIND       PRES   REMARKS
BOZEMAN        FAIR      16  12  84 S5        30.13S
DILLON         FAIR      16   9  74 S12       30.11R WCI   3
ENNIS          SUNNY     19  10  68 CALM      30.15R
W YELLOWSTONE  FAIR      -2  -8  78 CALM      30.10R
THREE FORKS      N/A     21  16  81 CALM      30.10S
$$

MTZ009-010-012-014-046-048-049-054-211800-
EAST SLOPES AND CENTRAL MONTANA

CITY           SKY/WX    TMP DP  RH WIND       PRES   REMARKS
CUT BANK       FAIR      32  17  54 SW18      29.94R WCI  20
GREAT FALLS    FAIR      30  16  56 S13       30.02R WCI  20
MALMSTROM AFB  FAIR      30  19  64 SW17      30.03R WCI  18
HELENA         FAIR      17  13  84 CALM      30.11R
AUGUSTA        FAIR      28  16  60 W14       29.98R WCI  17
BOWMANS CRNR   FAIR      25  16  69 S14       29.99S WCI  13
CHOTEAU          N/A     30  16  55 SW12      29.99S WCI  21
FAIRFIELD      FAIR      29  15  55 S15       29.98F WCI  17
POWER          FAIR      23  16  74 SW14      29.99S WCI  11
RAYNESFORD     FAIR      30  13  48 SW10      30.02S WCI  21
ULM            FAIR      31  20  65 S5        30.03S
WHITE SULPHUR    N/A     21  12  68 S18       30.04S WCI   6
$$

MTZ011-013-016-021-045-047-050-051-211800-
NORTH CENTRAL MONTANA

CITY           SKY/WX    TMP DP  RH WIND       PRES   REMARKS
HAVRE          FAIR      19  14  81 SW12      30.02R WCI   7
LEWISTOWN      FAIR      24  14  65 NE5       30.01R
N BAR RANCH    FAIR      28  10  47 W5        30.02R
CHINOOK          N/A     16  10  79 CALM      30.02F
DENTON         FAIR      21  15  78 MISG      29.98S
GEYSER         FAIR      28  17  64 W10       29.99S WCI  18
GRASS RANGE    FAIR      28  16  60 NW6       29.99R WCI  22
STANFORD       FAIR      28  16  62 CALM      29.99R
WINIFRED       FAIR      30  18  61 W7        30.00S WCI  23
$$

MTZ017>020-022>027-061-062-211800-
NORTHEAST MONTANA

CITY           SKY/WX    TMP DP  RH WIND       PRES   REMARKS
GLASGOW        FAIR      11   8  88 SE5       30.03R
GLENDIVE       FAIR      16  11  80 S8        30.04R WCI   5
JORDAN           N/A     20  14  77 NW10      30.04R WCI   9
MALTA          SUNNY      7   3  85 W8        30.03S WCI  -6
SIDNEY         FAIR      18  15  88 S9        30.04R WCI   7
WOLF POINT     FAIR      13   8  81 SW9       30.04S WCI   1
PLENTYWOOD       N/A     16  12  86 CALM      29.98R
POPLAR           N/A     10   7  85 CALM      30.04S
$$

MTZ028>42-056>058-211800-
SOUTHCENTRAL AND SOUTHEAST MONTANA

CITY           SKY/WX    TMP DP  RH WIND       PRES   REMARKS
BAKER          FAIR      24  18  77 W13       30.04R WCI  12
BILLINGS       FAIR      24  16  71 SW16      30.08R WCI  11
LIVINGSTON     FAIR      21  14  74 W13       30.08S WCI   9
MILES CITY     FAIR      13  11  92 S6        30.08R WCI   4
BIG TIMBER     SUNNY     27  16  63 W25       30.06F WCI  11
FORSYTH          N/A     18  12  79 W5        30.08R
HARLOWTON      FAIR      24  15  69 W13       30.03S WCI  12
LAUREL           N/A     23  16  74 SW9       30.10  WCI  13
$$

REGIONAL REPORTS...DAKOTAS

CITY           SKY/WX    TMP DP  RH WIND       PRES   REMARKS
WILLISTON      FAIR      17  15  92 S5        30.03R
MINOT          FAIR      22  16  78 S5        30.03R
DICKINSON      FAIR      28  18  66 W7        30.01R WCI  21
BEACH          FAIR      25  18  74 W8        30.05S WCI  16
CROSBY         FAIR      16  14  93 SW13      30.00R WCI   2
TIOGA          FAIR       9   9 100 CALM      30.01S
BISMARCK       FAIR      19  18  95 CALM      30.08R
GRAND FORKS    CLOUDY    24  22  91 N8        30.11R WCI  15
FARGO          CLOUDY    20  19  96 N8        30.08R FOG     WCI  10
BUFFALO SD       N/A     26  19  74 W9        29.95S WCI  17
RAPID CITY     CLOUDY    32  25  75 N12       30.01R WCI  23
$$

REGIONAL REPORTS...WYOMING/IDAHO/WASHINGTON

CITY           SKY/WX    TMP DP  RH WIND       PRES   REMARKS
GILLETTE       FAIR      26  19  74 NW6       30.01S WCI  19
SHERIDAN       FAIR      30  19  63 NW9       30.07R WCI  22
BUFFALO WY     CLOUDY    28  15  58 N8        30.03R WCI  20
CODY           FAIR      29  13  51 SW6       30.06R WCI  23
YELLOWSTONE LA   N/A     -6  -7  95 CALM      30.07R
IDAHO FALLS    FAIR      22  20  92 SW10      30.17R WCI  11
SALMON         CLOUDY    25  21  85 S5        30.23R
BOISE          FAIR      32  26  78 SE8       30.24R WCI  25
SPOKANE        PTSUNNY   33  29  85 SE8       30.05S WCI  26
$$

REGIONAL REPORTS...ALBERTA

CITY           SKY/WX    TMP DP  RH WIND       PRES   REMARKS
CALGARY        MOSUNNY   30  16  55 S6        29.78F WCI  24
CARDSTON         N/A     34  16  47 SW8         N/A  WCI  27
EDMONTON       CLOUDY    19  18  93 E8        29.83F VSB 1   WCI   9
FORT MCMURRAY  CLOUDY     3   0  85 NE5       30.04S
HIGH LEVEL     FLURRIES  10   7  85 SE7       29.95F WCI   0
LETHBRIDGE     MOSUNNY   34  19  55 SW15G23   29.90R WCI  24
LLOYDMINSTER   FOG       21  21 100 E3        29.90R VSB 1
MEDICINE HAT   MOSUNNY   30  19  64 S12       29.94R WCI  21
MILK RIVER       N/A     27  14  59 W2          N/A
ONEFOUR          N/A     14   9  79 E9          N/A  WCI   2
PEACE RIVER    CLOUDY    18  14  86 NE15      29.76F WCI   3
PINCHER CREEK  SUNNY     30  19  64 W23G32    29.90F WCI  17
WATERTON GATE    N/A     32  16  51 SW24G38     N/A  WCI  19
$$

REGIONAL REPORTS...SASKATCHEWAN

CITY           SKY/WX    TMP DP  RH WIND       PRES   REMARKS
CORONACH         N/A     19  18  93 E1          N/A
ESTEVAN        MOSUNNY   16  12  86 S7        30.00R WCI   6
MOOSE JAW        N/A     27  21  80 SW8         N/A  WCI  18
PRINCE ALBERT  CLOUDY    16  12  86 E3        29.99S
REGINA         MOSUNNY   12  10  92 SE7       29.95R WCI   2
ROCKGLEN         N/A     21  16  79 W13         N/A  WCI   9
SASKATOON      FOG       18  16  93 W3        29.98R VSB 1/8
SWIFT CURRENT  SUNNY     27  19  74 W16       29.91R WCI  14
VAL MARIE        N/A      9   5  85 NE3         N/A
$$



USA.gov is the U.S. government's official web portal to all federal, state and local government web resources and services.